OBJECT E, 62733

Orbit data source: Space-Track

You're viewing an Uncataloged Satellite

Recently launched and/or uncataloged satellites may have evolving metadata. Metadata may include but not limited to: Owner, Maufacturer, Bus, Motor, and Mission.

OBJECT E, 62733 is a Chinese satellite in SSO that was launched on Mon, 20 Jan 2025 UTC via a GUSHENXING 1 launch vehicle from the Jiuquan Satellite Launch Center, China (JSC). Unknown objects in Earth's orbit typically refer to objects detected orbiting the Earth but have not yet been identified or cataloged. These objects could be anything from previously untracked satellites, spent rocket stages, debris from satellite collisions, or even natural meteoroids temporarily captured by Earth's gravity.

Loading next visibility...
Identifier
62733, 2025-013E
Orbit
SSO
Country
Flag of CNCN / PRC
Related business
None
Manufacturer
ZKRG
Mission
Operational Commercial Imaging
Bus & Motor
XINGYUN-01, Unknown motor
Mass
~50 kg wet, ~50 kg dry
Launch date (UTC)
2025-01-20 (8 months ago)
Launch vehicle
GUSHENXING 1
Launch site
Jiuquan Satellite Launch Center, China (JSC)
Object type
Unknown
Shape & HBR
Box + 2 Pan, 2.5 m
Radar Cross Section
5.545 m², Medium (>0.1 m² and < 1m²)

Expand to show TLE details & history
Last TLE update: 9 hours ago

TLE from 9 hours ago
0 OBJECT E
1 62733U 25013E   25259.31233161  .00004055  00000-0  26572-3 0  9994
2 62733  97.6353  64.3571 0007922 229.1922 130.8620 15.08255295 35896
Epoch: 2025-09-16T07:29Z
TLE epoch observation values (Epoch: 2025-09-16T07:29:45.451Z)
Latitude
0.00004°
Longitude
-43.58672°
Altitude
548.189 km
Speed
7.586 km/s
True Right ascension
04h 17m 25s
True Declination
0° 00' 00"
Sunlit
Object was in daylight at epoch
Visualization orbit readout
Latitude
Unknown
Longitude
Unknown
Altitude
Unknown
Speed
Unknown
Apparent Right ascension
Unknown
Apparent Declination
Unknown
Sunlit
N/A
Visualization observer readout
Local Sidereal Time
09:29:22
Azimuth
Unknown
Elevation
Unknown
Doppler factor
Unknown
Orbital elements
Apogee altitude
544.002 km
Perigee altitude
533.043 km
Semi-major axis
6,916.66 km
Eccentricity
0.00079
Inclination
97.6353°
RAAN
64.3571°
Arg. of periapsis
229.1922°
True anomaly
130.93061°
Mean anomaly
130.862°
Eccentric anomaly
130.89631°
Mean motion
3.7731 °/min
Orbital period
95.41 mins
BSTAR
0.00026572
Loading maneuver chart data...
Computing Atmospheric mass density...
Loading historical data...
Loading historical data...
Loading historical data...
Loading historical data...
Loading historical data...
Loading historical data...
Loading historical data...
Other satellites on launch #13 in the year 2025 (2025-01-20 UTC)

Documentation

Showing up to 5 results
|